Location: York
(31.8935°S, 116.7682°E)
Time: 17:55:21
(UTC+08:00)

deb Explorer IX - Pass Details

Date: 26 September 2022
Orbit: 533 x 1057 km, 38.8° (Epoch: 30 November)

Event Time Altitude Azimuth Distance (km) Brightness Sun altitude
Rises 22:38:32 0° 265° (W) 3,037 - -51.0°
Reaches altitude 10° 22:41:13 10° 256° (WSW) 2,040 - -51.3°
Maximum altitude 22:45:30 35° 189° (S) 958 - -51.8°
Drops below altitude 10° 22:49:24 10° 121° (ESE) 1,848 - -52.3°
Sets 22:51:43 0° 112° (ESE) 2,711 - -52.5°
